Showing default

ESSA 1 (OT-3), 1982

Orbit data source: Space-Track

ESSA 1 (OT-3), 1982 is a payload satellite owned by ESSA (US) in SSO that was launched on Thu, 03 Feb 1966 UTC via a THOR DELTA C launch vehicle from the Air Force Eastern Test Range (AFETR). Payload-class satellites include a variety of spacecraft equipped with specific instruments for various scientific and technological missions. These include communications satellites like Starlink; space stations such as the ISS; scientific satellites like the Hubble; Earth observation satellites from companies like Planet Labs, Umbra, and HawkEye 360; GPS; miniature CubeSats for education and research; and military/defense satellites.

Loading next visibility...
Identifier
1982, 1966-008A
Orbit
SSO
Country
Flag of USUS
Related business
Manufacturer
RCA/East Windsor
Mission
Non-operational spacecraft
Bus & Motor
TIROS I, Unknown motor
Mass
138 kg wet, 138 kg dry
Launch date (UTC)
1966-02-03 (60 years ago)
Launch vehicle
THOR DELTA C
Launch site
Air Force Eastern Test Range (AFETR)
Object type
Payload
Rocket body
Debris
Shape & HBR
Unknown
Radar Cross Section
Medium (>0.1 m² and <1 m²)

Expand to show TLE details & history
Last TLE update: 15 hours ago

TLE from 15 hours ago
0 ESSA 1 (OT-3)
1  1982U 66008A   26150.09798752  .00000223  00000-0  67905-4 0  9999
2  1982  97.8120 183.3434 0080304 159.0977 201.3532 14.48333029155327
Epoch: 2026-05-30T02:21Z
TLE epoch observation values (Epoch: 2026-05-30T02:21:06.121Z)
Latitude
-0.00007°
Longitude
-99.55099°
Altitude
787.322 km
Speed
7.432 km/s
True Right ascension
12h 13m 22s
True Declination
0° 00' 00"
Sunlit
Object was in daylight at epoch
Visualization orbit readout
Latitude
Unknown
Longitude
Unknown
Altitude
Unknown
Speed
Unknown
Apparent Right ascension
Unknown
Apparent Declination
Unknown
Sunlit
N/A
Visualization observer readout
Local Sidereal Time
02:55:03
Azimuth
Unknown
Elevation
Unknown
Doppler factor
Unknown
Orbital elements
Apogee altitude
785.244 km
Perigee altitude
671.111 km
Semi-major axis
7,106.314 km
Eccentricity
0.00803
Inclination
97.812°
RAAN
183.3434°
Arg. of periapsis
159.0977°
True anomaly
201.02124°
Mean anomaly
201.3532°
Eccentric anomaly
201.18691°
Mean motion
3.62307 °/min
Orbital period
99.36 mins
BSTAR
0.000067905
Loading maneuver chart data...
Computing Atmospheric mass density...
Loading historical data...
Loading historical data...
Loading historical data...
Loading historical data...
Loading historical data...
Loading historical data...
Loading historical data...
Other satellites on launch #8 in the year 1966 (1966-02-03 UTC)

Documentation

Showing up to 5 results
|